Location: Ethel Rock
(53.4667°N, 4.5667°W)
Time: 01:30:21
(UTC+00:00)

IDEFIX/ARIANE 42P - Pass Details

Date: 24 October 2020
Orbit: 784 x 803 km, 98.4° (Epoch: 26 November)

Event Time Altitude Azimuth Distance (km) Brightness Sun altitude
Rises 05:06:55 0° 9° (N) 3,319 6.0 -17.8°
Reaches altitude 10° 05:09:39 10° 356° (N) 2,381 5.0 -17.4°
Maximum altitude 05:13:45 24° 304° (NW) 1,604 3.7 -16.8°
Enters shadow 05:14:15 24° 296° (WNW) 1,616 3.7 -16.7°
